User: anonymous   Login
Location: Carnetin
(48.9010°N, 2.7059°E)
Time: 17:42:47
(UTC+00:00)
Language:

Cosmos 2344 - Orbit

View from above orbital plane
View from above orbital plane
View from above satellite
View from above satellite

Ground track
Ground track

The orbit data is extracted from the following two-line orbital elements,

1 24827U 97028A   22023.77469199 -.00000209  00000-0 -19298-2 0  9994
2 24827  63.3181  16.8424 1046108  49.0392 113.6755 11.07945840996673
Epoch (UTC): 23 January 2022 18:35:33
Eccentricity: 0.1046108
inclination: 63.3181°
perigee height: 1232 km
apogee height: 3010 km
right ascension of ascending node: 16.8424°
argument of perigee: 49.0392°
revolutions per day: 11.07945840
mean anomaly at epoch: 113.6755°
orbit number at epoch: 99667

The dashed part of the orbit path shows where the satellite is in the earth's shadow,  

DLR